This is the latest recevied weather packets stored in our database for station/object IZ1MEU-13. If no packets are shown the sender has not sent any weather packets the latest 10 day(s).
| Time | Temp. | Humidity | Pressure | Rain* | Wind** | Luminosity | Snow |
|---|---|---|---|---|---|---|---|
| 1777913465 | 16.11° C | 42% | 1018.9 hPa | - | - | - | - |
| 1777912261 | 16.67° C | 41% | 1018.9 hPa | - | - | - | - |
| 1777911057 | 17.78° C | 40% | 1018.9 hPa | - | - | - | - |
| 1777909853 | 17.78° C | 41% | 1018.9 hPa | - | - | - | - |
| 1777908650 | 18.33° C | 40% | 1019 hPa | - | - | - | - |
| 1777907446 | 17.78° C | 41% | 1019 hPa | - | - | - | - |
| 1777906242 | 17.78° C | 41% | 1019.2 hPa | - | - | - | - |
| 1777905039 | 17.78° C | 43% | 1019.3 hPa | - | - | - | - |
| 1777903835 | 17.22° C | 43% | 1019.5 hPa | - | - | - | - |
| 1777902631 | 18.89° C | 41% | 1019.7 hPa | - | - | - | - |
| 1777901427 | 19.44° C | 40% | 1019.9 hPa | - | - | - | - |
| 1777900223 | 18.89° C | 41% | 1019.9 hPa | - | - | - | - |
| 1777899020 | 20.56° C | 39% | 1019.8 hPa | - | - | - | - |
| 1777897816 | 20.56° C | 40% | 1020 hPa | - | - | - | - |
| 1777896612 | 20° C | 42% | 1020 hPa | - | - | - | - |
| 1777895408 | 19.44° C | 43% | 1020.1 hPa | - | - | - | - |
| 1777894204 | 19.44° C | 43% | 1020.1 hPa | - | - | - | - |
| 1777893001 | 19.44° C | 44% | 1020.1 hPa | - | - | - | - |
| 1777891797 | 18.89° C | 44% | 1020.2 hPa | - | - | - | - |
| 1777890593 | 18.33° C | 46% | 1020.3 hPa | - | - | - | - |
| 1777889389 | 17.22° C | 48% | 1020.3 hPa | - | - | - | - |
| 1777888186 | 16.11° C | 49% | 1020.3 hPa | - | - | - | - |
| 1777886982 | 16.11° C | 49% | 1020.4 hPa | - | - | - | - |
| 1777885778 | 15.56° C | 50% | 1020.4 hPa | - | - | - | - |
| 1777884574 | 15° C | 50% | 1020.3 hPa | - | - | - | - |
* Rain since midnight (hover to see other rain measurements)
** Current wind speed in m/s (hover to see current wind gust speed)